Tracking 32523 objects as of 13-Dec-2025
HD Live streaming from Space Station
objects crossing your sky now

OBJECT E

Track OBJECT E now!
10-day predictions


NORAD ID: 57008
Int'l Code: 2023-085E
Perigee: 355.8 km
Apogee: 361.2 km
Inclination: 97.5 °
Period: 91.6 minutes
Semi major axis: 6729 km
RCS: Unknown
Launch date: June 15, 2023
Source: People's Republic of China (PRC)
Launch site: Taiyaun Space Center, China (TSC)
Your satellite tracking list
Your tracking list is empty




NASA's NSSDC Master Catalog

Two Line Element Set (TLE):
1 57008U 23085E   25346.31150881  .00221002  00000-0  16097-2 0  9997
2 57008  97.4712 104.5899 0004024 285.1770  74.9048 15.72646056139027
Source of the keplerian elements: AFSPC